Waarnemingen

Advertentie
Mijn weer
Vlissingen, Nederland (6310): temperatuur & dauwpunt: 18.04.2018 10:00:00 - 24.04.2018 10:00:00 (CEST)Vlissingen, Nederland (6310): temperatuur 5cm: 18.04.2018 10:00:00 - 24.04.2018 10:00:00 (CEST)Vlissingen, Nederland (6310): windsnelheid & windstoten: 18.04.2018 10:00:00 - 24.04.2018 10:00:00 (CEST)Vlissingen, Nederland (6310): windrichting: 18.04.2018 10:00:00 - 24.04.2018 10:00:00 (CEST)Vlissingen, Nederland (6310): luchtdruk: 18.04.2018 10:00:00 - 24.04.2018 10:00:00 (CEST)Vlissingen, Nederland (6310): zicht: 18.04.2018 10:00:00 - 24.04.2018 10:00:00 (CEST)Vlissingen, Nederland (6310): neerslag: 18.04.2018 10:00:00 - 24.04.2018 10:00:00 (CEST)
Datum & Tijd tt [°C] td [°C] tt 5cm [°C] ff [km/u] ff [kn] fx [km/u] fx [kn] dd ppp [hPa] vv [km] rr [mm]
24.04.2018 10:00:00 11,5 9,8 11,6 29 16 36 19 WZW 1016,8 9 0,0
24.04.2018 09:00:00 11,3 9,5 11,4 29 16 36 19 WZW 1016,3 10 0,0
24.04.2018 08:00:00 10,9 9,4 10,6 41 22 47 25 WZW 1015,7 9 0,0
24.04.2018 07:00:00 10,4 8,3 9,9 29 16 36 19 ZW 1015,8 10 0,0
24.04.2018 06:00:00 10,1 7,3 9,5 31 17 40 21 WZW 1015,7 10 0,0
24.04.2018 05:00:00 10,1 6,7 9,6 34 18 40 21 ZW 1015,7 10 0,0
24.04.2018 04:00:00 9,9 6,8 9,3 29 16 36 19 ZW 1015,8 10 0,0
24.04.2018 03:00:00 9,5 6,9 8,8 28 15 36 19 ZW 1016,2 10 0,0
24.04.2018 02:00:00 9,6 6,8 8,8 29 16 36 19 ZW 1016,2 10 0,0
24.04.2018 01:00:00 9,6 6,7 8,7 31 17 40 21 ZW 1016,5 10 0,0
24.04.2018 00:00:00 9,8 6,6 8,8 29 16 40 21 ZW 1017,1 10 0,0
23.04.2018 23:00:00 10,2 6,9 9,2 35 19 43 23 ZW 1017,1 10 0,0
23.04.2018 22:00:00 10,8 7,1 9,7 34 18 43 23 ZW 1017,6 10 0,0
23.04.2018 21:00:00 11,7 7,1 10,7 34 18 47 25 WZW 1016,8 10 0,0
23.04.2018 20:00:00 12,1 7,8 11,7 29 16 43 23 W 1016,8 10 0,0
23.04.2018 19:00:00 12,2 8,7 12,1 28 15 36 19 W 1016,7 10 0,0
23.04.2018 18:00:00 12,8 8,9 12,9 29 16 36 19 W 1016,8 17 0,0
23.04.2018 17:00:00 12,6 8,8 13,4 29 16 43 23 W 1017,0 10 0,0
23.04.2018 16:00:00 12,7 9,1 15,0 28 15 36 19 W 1017,5 10 0,0
23.04.2018 15:00:00 13,2 9,0 15,5 22 12 29 16 W 1017,7 24 0,0
23.04.2018 14:00:00 11,8 8,2 12,7 26 14 32 18 W 1017,3 10 0,0
23.04.2018 13:00:00 12,2 8,9 14,2 29 16 32 18 W 1017,3 20 0,0
23.04.2018 12:00:00 11,6 8,5 13,5 29 16 36 19 WZW 1017,2 10 0,0
23.04.2018 11:00:00 11,4 8,5 12,9 32 18 40 21 W 1016,7 20 0,0
23.04.2018 10:00:00 11,2 8,7 12,0 29 16 36 19 W 1016,1 10 0,0
23.04.2018 09:00:00 11,1 9,1 11,2 31 17 40 21 W 1015,3 10 0,0
23.04.2018 08:00:00 10,9 9,4 10,4 28 15 36 19 WZW 1014,7 9 0,0
23.04.2018 07:00:00 10,8 9,6 10,0 26 14 32 18 W 1014,2 8 0,0
23.04.2018 06:00:00 10,8 9,8 10,0 26 14 32 18 WZW 1013,6 8 0,0
23.04.2018 05:00:00 10,9 9,7 10,1 24 13 36 19 W 1013,5 9 0,0
23.04.2018 04:00:00 11,3 9,6 10,6 28 15 36 19 W 1013,1 10 0,0
23.04.2018 03:00:00 11,9 9,1 11,1 26 14 43 23 W 1012,5 10 0,0
23.04.2018 02:00:00 12,5 8,0 11,4 18 10 29 16 W 1012,3 10 0,0
23.04.2018 01:00:00 13,2 6,9 11,6 26 14 32 18 ZW 1011,9 10 0,0
23.04.2018 00:00:00 14,0 8,8 12,6 28 15 36 19 ZW 1011,3 10 0,0
22.04.2018 23:00:00 13,6 10,0 12,5 21 11 25 14 WZW 1011,1 10 0,0
22.04.2018 22:00:00 15,6 10,1 13,4 26 14 32 18 ZW 1010,6 10 0,0
22.04.2018 21:00:00 14,5 9,8 13,0 35 19 43 23 W 1010,2 10 0,0
22.04.2018 20:00:00 14,3 9,8 13,4 29 16 36 19 W 1009,7 10 0,0
22.04.2018 19:00:00 15,3 9,7 15,4 26 14 36 19 W 1009,6 10 0,0
22.04.2018 18:00:00 15,2 11,2 16,7 22 12 32 18 W 1009,7 10 0,0
22.04.2018 17:00:00 16,5 11,9 17,9 29 16 43 23 W 1009,5 10 0,0
22.04.2018 16:00:00 18,9 12,6 18,6 31 17 40 21 WNW 1009,7 9 0,0
22.04.2018 15:00:00 22,4 12,5 22,8 21 11 36 19 W 1009,7 10 0,0
22.04.2018 14:00:00 23,4 15,2 24,4 11 6 25 14 WZW 1009,6 10 0,0
22.04.2018 13:00:00 19,7 14,5 21,8 13 7 22 12 ZO 1010,0 7 0,0
22.04.2018 12:00:00 17,6 12,3 17,7 18 10 22 12 O 1010,7 7 0,0
22.04.2018 11:00:00 16,0 13,0 17,4 16 9 25 14 ZO 1011,4 7 0,6
22.04.2018 10:00:00 12,4 10,3 12,4 28 15 32 18 OZO 1011,5 8 0,0
22.04.2018 09:00:00 13,0 10,2 12,3 29 16 36 19 O 1011,3 7 0,3
22.04.2018 08:00:00 14,7 9,3 13,4 18 10 22 12 O 1012,0 10 0,0
22.04.2018 07:00:00 13,2 9,4 11,3 4 2 25 14 WZW 1013,4 11 0,0
22.04.2018 06:00:00 12,6 9,5 10,4 9 5 14 8 OZO 1013,7 10 0,0
22.04.2018 05:00:00 14,1 9,2 12,7 22 12 22 12 O 1013,8 13 0,0
22.04.2018 04:00:00 14,6 9,1 12,9 22 12 25 14 O 1014,5 10 0,0
22.04.2018 03:00:00 15,4 9,0 13,5 21 11 22 12 O 1015,4 10 0,0
22.04.2018 02:00:00 15,4 9,4 14,0 21 11 25 14 O 1016,1 10 0,0
22.04.2018 01:00:00 16,8 9,4 15,3 18 10 29 16 O 1016,2 10 0,0
22.04.2018 00:00:00 17,0 9,7 14,6 15 8 22 12 O 1016,8 10 0,0
21.04.2018 23:00:00 16,2 9,9 13,7 15 8 22 12 ONO 1017,5 10 0,0
21.04.2018 22:00:00 16,5 11,0 14,3 15 8 18 10 ONO 1018,0 10 0,0
21.04.2018 21:00:00 17,5 11,2 15,6 13 7 18 10 NNO 1017,9 10 0,0
21.04.2018 20:00:00 19,3 10,9 17,8 15 8 22 12 NNO 1018,1 10 0,0
21.04.2018 19:00:00 19,9 10,3 18,4 8 4 18 10 O 1018,8 10 0,0
21.04.2018 18:00:00 17,9 10,8 19,5 9 5 18 10 O 1019,3 10 0,0
21.04.2018 17:00:00 20,9 12,0 21,1 9 5 18 10 O 1019,8 10 0,0
21.04.2018 16:00:00 18,0 11,8 20,7 11 6 14 8 OZO 1020,5 15 0,0
21.04.2018 15:00:00 18,2 12,8 20,5 13 7 14 8 ZO 1021,1 10 0,0
21.04.2018 14:00:00 16,8 12,3 20,2 11 6 14 8 OZO 1021,7 9 0,0
21.04.2018 13:00:00 16,5 11,5 20,3 9 5 11 6 ZO 1022,3 7 0,0
21.04.2018 12:00:00 14,3 11,0 18,3 11 6 14 8 O 1022,8 7 0,0
21.04.2018 11:00:00 14,8 11,2 17,4 13 7 18 10 O 1023,0 10 0,0
21.04.2018 10:00:00 15,0 10,3 16,7 11 6 18 10 ONO 1022,9 10 0,0
21.04.2018 09:00:00 13,2 10,4 14,0 15 8 18 10 NO 1023,0 7 0,0
21.04.2018 08:00:00 11,1 9,7 10,9 11 6 14 8 NNO 1022,8 4,8 0,0
21.04.2018 07:00:00 10,0 8,9 8,8 14 8 18 10 NNO 1022,7 4,3 0,0
21.04.2018 06:00:00 9,7 8,6 9,0 18 10 22 12 NNO 1022,5 4,9 0,0
21.04.2018 05:00:00 9,6 8,4 8,8 16 9 18 10 N 1022,6 3,3 0,0
21.04.2018 04:00:00 10,1 8,5 8,7 9 5 14 8 N 1022,7 3,4 0,0
21.04.2018 03:00:00 10,1 8,2 9,4 11 6 18 10 N 1022,8 2,9 0,0
21.04.2018 02:00:00 10,7 8,0 8,8 8 4 11 6 N 1023,0 3,9 0,0
21.04.2018 01:00:00 10,3 7,9 9,3 9 5 14 8 NNW 1023,3 3,2 0,0
21.04.2018 00:00:00 10,7 8,0 8,2 5 3 11 6 WNW 1023,2 3,3 0,0
20.04.2018 23:00:00 11,0 8,1 9,5 8 4 14 8 N 1023,3 4,2 0,0
20.04.2018 22:00:00 10,9 8,1 10,2 15 8 22 12 N 1023,3 4,7 0,0
20.04.2018 21:00:00 12,8 8,3 11,8 11 6 18 10 N 1022,9 6 0,0
20.04.2018 20:00:00 16,3 10,0 15,5 13 7 18 10 N 1022,5 7 0,0
20.04.2018 19:00:00 16,7 10,9 16,7 16 9 25 14 NNW 1022,7 7 0,0
20.04.2018 18:00:00 18,7 11,4 19,5 18 10 22 12 NW 1022,6 12 0,0
20.04.2018 17:00:00 18,8 11,0 20,0 18 10 29 16 WNW 1022,8 14 0,0
20.04.2018 16:00:00 17,5 10,9 18,4 18 10 25 14 W 1022,8 10 0,0
20.04.2018 15:00:00 18,5 10,5 20,2 21 11 29 16 WNW 1023,1 10 0,0
20.04.2018 14:00:00 19,1 9,4 20,0 26 14 36 19 W 1023,2 10 0,0
20.04.2018 13:00:00 18,8 9,8 19,7 24 13 32 18 W 1023,3 10 0,0
20.04.2018 12:00:00 19,5 13,1 22,0 9 5 14 8 WZW 1023,3 9 0,0
20.04.2018 11:00:00 17,9 13,0 20,1 11 6 14 8 WZW 1023,1 8 0,0
20.04.2018 10:00:00 17,0 13,6 18,0 8 4 11 6 ZZW 1022,7 7 0,0
20.04.2018 09:00:00 14,1 11,5 14,8 8 4 7 4 ZZW 1022,7 6 0,0
20.04.2018 08:00:00 15,0 11,5 14,0 4 2 7 4 - 1022,6 9 0,0
20.04.2018 07:00:00 14,1 11,1 11,1 2 1 7 4 - 1022,5 8 0,0
20.04.2018 06:00:00 13,4 10,1 11,2 8 4 11 6 ZZO 1022,4 9 0,0
20.04.2018 05:00:00 12,7 10,3 10,6 9 5 11 6 ZZO 1022,6 6 0,0
20.04.2018 04:00:00 15,5 10,9 12,4 4 2 7 4 ZZO 1022,7 9 0,0
20.04.2018 03:00:00 16,1 10,9 12,2 8 4 11 6 ZZO 1023,0 9 0,0
20.04.2018 02:00:00 15,1 10,8 12,9 9 5 11 6 ZZO 1023,4 7 0,0
20.04.2018 01:00:00 15,6 11,0 13,2 14 8 14 8 OZO 1023,5 7 0,0
20.04.2018 00:00:00 14,8 10,6 12,4 11 6 14 8 OZO 1023,6 7 0,0
19.04.2018 23:00:00 18,6 10,5 14,4 11 6 14 8 ONO 1023,7 9 0,0
19.04.2018 22:00:00 18,4 11,5 15,9 9 5 14 8 NO 1023,9 9 0,0
19.04.2018 21:00:00 19,5 11,2 17,1 14 8 18 10 NO 1023,3 10 0,0
19.04.2018 20:00:00 23,9 8,2 21,9 5 3 7 4 ZZO 1023,0 10 0,0
19.04.2018 19:00:00 24,3 7,4 22,9 8 4 11 6 Z 1023,3 10 0,0
19.04.2018 18:00:00 21,0 8,5 21,9 13 7 14 8 ZZO 1023,6 10 0,0
19.04.2018 17:00:00 23,2 9,3 24,5 9 5 11 6 ZO 1023,9 10 0,0
19.04.2018 16:00:00 24,5 8,6 24,6 11 6 14 8 O 1024,2 10 0,0
19.04.2018 15:00:00 23,2 9,0 23,8 11 6 14 8 O 1024,7 10 0,0
19.04.2018 14:00:00 21,9 9,6 22,8 13 7 14 8 OZO 1024,9 10 0,0
19.04.2018 13:00:00 21,1 9,7 22,4 15 8 18 10 OZO 1025,3 10 0,0
19.04.2018 12:00:00 18,6 10,5 20,1 16 9 22 12 ZO 1025,5 10 0,0
19.04.2018 11:00:00 16,5 9,7 17,8 21 11 25 14 OZO 1025,7 10 0,0
19.04.2018 10:00:00 15,5 8,7 15,8 21 11 25 14 O 1025,7 10 0,0
19.04.2018 09:00:00 15,7 8,2 15,8 21 11 22 12 O 1026,0 10 0,0
19.04.2018 08:00:00 14,8 7,5 13,7 21 11 25 14 OZO 1025,8 10 0,0
19.04.2018 07:00:00 14,7 7,6 12,9 22 12 25 14 O 1025,6 10 0,0
19.04.2018 06:00:00 14,1 8,0 11,8 18 10 22 12 O 1025,6 10 0,0
19.04.2018 05:00:00 13,9 8,3 11,1 16 9 22 12 OZO 1026,0 10 0,0
19.04.2018 04:00:00 12,9 8,6 11,4 22 12 25 14 OZO 1026,1 10 0,0
19.04.2018 03:00:00 14,1 8,7 12,8 29 16 32 18 OZO 1026,2 10 0,0
19.04.2018 02:00:00 14,9 8,9 13,5 29 16 32 18 O 1026,7 10 0,0
19.04.2018 01:00:00 18,8 8,5 15,2 16 9 25 14 O 1027,0 10 0,0
19.04.2018 00:00:00 17,8 8,9 14,6 18 10 25 14 O 1027,2 10 0,0
18.04.2018 23:00:00 17,6 9,6 15,4 16 9 22 12 ONO 1027,5 10 0,0
18.04.2018 22:00:00 18,5 10,0 16,3 15 8 18 10 ONO 1027,5 10 0,0
18.04.2018 21:00:00 19,2 9,4 14,9 13 7 18 10 ONO 1027,2 10 0,0
18.04.2018 20:00:00 20,6 9,6 18,3 15 8 18 10 ONO 1027,2 10 0,0
18.04.2018 19:00:00 21,8 7,9 20,4 13 7 18 10 O 1027,7 10 0,0
18.04.2018 18:00:00 21,4 7,4 20,8 18 10 22 12 O 1027,9 10 0,0
18.04.2018 17:00:00 21,1 7,6 21,4 18 10 22 12 O 1028,3 10 0,0
18.04.2018 16:00:00 20,6 7,7 21,4 21 11 22 12 O 1029,0 10 0,0
18.04.2018 15:00:00 21,1 8,6 22,4 15 8 18 10 O 1029,6 10 0,0
18.04.2018 14:00:00 20,5 10,3 22,3 15 8 18 10 OZO 1030,2 10 0,0
18.04.2018 13:00:00 17,8 12,1 20,1 8 4 11 6 OZO 1030,6 10 0,0
18.04.2018 12:00:00 17,1 11,6 19,3 5 3 11 6 OZO 1030,8 10 0,0
18.04.2018 11:00:00 15,9 11,2 17,2 5 3 11 6 OZO 1030,9 10 0,0
18.04.2018 10:00:00 15,4 9,9 16,5 5 3 11 6 Z 1030,7 10 0,0

tt = temperatuur
td = dauwpunt
tt 5cm = temperatuur 5cm
ff = windsnelheid
fx = windstoten
dd = windrichting
ppp = luchtdruk
vv = zicht
rr = neerslag

Weerstations in de omgeving